Location: Royer Oaks
(36.2112°N, 118.8127°W)
Time: 10:55:45
(UTC-07:00)

Tiangong - Visible Passes

Search period start: 31 July 2021 00:00
Search period end: 10 August 2021 00:00
Orbit: 373 x 386 km, 41.5° (Epoch: 31 July)

Date Brightness Start Highest point End Pass type
(mag) Time Alt. Az. Time Alt. Az. Time Alt. Az.
05 Aug 2.6 05:22:40 10° SSW 05:25:23 28° SSE 05:28:08 10° E visible
06 Aug 3.4 04:24:06 15° SE 04:24:12 15° SE 04:26:02 10° ESE visible
07 Aug 1.5 04:57:45 25° SW 04:59:14 49° SSE 05:02:18 10° ENE visible
08 Aug 3.4 03:59:15 19° ESE 03:59:15 19° ESE 04:00:37 10° E visible
08 Aug 1.5 05:31:27 10° W 05:34:32 56° NNW 05:37:38 10° ENE visible
09 Aug 0.8 04:32:47 71° SW 04:33:05 86° SSE 04:36:13 10° ENE visible
